Amateur Radio Satellites - All Passes

Search period start: 23 May 2013 04:22
Search period end: 24 May 2013 04:22
Location: Northern Prairie Star Party, 53.2167°N, 112.5333°W

Satellite Date Start Highest point End Downlink Frequencies (MHz)
Time Altitude Azimuth
ISS 23 May 04:28:45 04:31:38 28° 152° (SSE) 04:34:32 145.800 FM
AO-27 23 May 04:28:54 04:34:00 54° 293° (WNW) 04:39:05 436.795 MHz FM
TMSAT-1 23 May 04:33:19 04:37:34 24° 90° (E) 04:41:48 436.925 FM
ITAMSAT 1 23 May 04:35:31 04:40:33 50° 294° (WNW) 04:45:35 435.822 SSB
RS-15 23 May 04:52:37 04:58:15 16° 267° (W) 05:03:50 29.354 - 29.394 USB, Beacon 29.352 USB
Gurwin Techsat 1B 23 May 04:54:54 05:00:03 47° 99° (E) 05:05:10 435.225 FM
MaSat-1 23 May 04:59:47 05:05:13 30° 319° (NW) 05:09:38 437.345 MHz
AO-7 23 May 05:01:41 05:07:31 20° 85° (E) 05:13:19 29.400 - 29.500 MHz
Uosat F 23 May 05:12:48 05:17:51 73° 104° (ESE) 05:22:53 435.120 FM
Uribyol 2 23 May 05:16:59 05:21:16 26° 303° (WNW) 05:25:33 436.500 FM
Oscar 19 23 May 05:19:45 05:23:42 23° 305° (NW) 05:27:38 437.125 CW, 437.150 USB
AO-Echo 23 May 05:20:03 05:24:35 47° 293° (WNW) 05:29:11 ?
KITSAT 1 23 May 05:45:13 05:52:42 38° 18° (NNE) 06:00:11 435.175 FM
STRAND 1 23 May 05:50:25 05:54:59 35° 61° (ENE) 05:59:36 ?
Oscar 16 23 May 06:00:42 06:02:31 12° 315° (NW) 06:04:20 437.025 USB, Beacon 2401.1428
ISS 23 May 06:04:43 06:08:02 63° 172° (S) 06:11:21 145.800 FM
AO-27 23 May 06:10:11 06:12:30 13° 314° (NW) 06:14:50 436.795 MHz FM
TMSAT-1 23 May 06:12:43 06:18:00 67° 290° (WNW) 06:23:16 436.925 FM
ITAMSAT 1 23 May 06:17:01 06:18:58 12° 315° (NW) 06:20:56 435.822 SSB
Oscar 10/S400 23 May 06:23:56 10:11:14 50° 224° (SW) 16:23:25 145.825 - 145.975 CW/USB, Beacon 145.810 USB
Gurwin Techsat 1B 23 May 06:35:09 06:39:57 35° 299° (WNW) 06:44:43 435.225 FM
MaSat-1 23 May 06:46:22 06:48:46 13° 342° (NNW) 06:50:57 437.345 MHz
Saudisat 1A 23 May 06:50:53 06:55:16 46° 125° (SE) 06:59:42 436.775 MHz
Uosat F 23 May 06:52:21 06:56:13 23° 304° (NW) 07:00:05 435.120 FM
AO-7 23 May 06:53:25 07:01:49 74° 108° (ESE) 07:10:11 29.400 - 29.500 MHz
AO-Echo 23 May 07:02:01 07:02:22 10° 314° (NW) 07:02:43 ?
PCSat 23 May 07:17:58 07:21:25 17° 106° (ESE) 07:24:53 145.825 MHz
STRAND 1 23 May 07:29:15 07:34:07 45° 261° (W) 07:39:03 ?
KITSAT 1 23 May 07:41:12 07:49:23 76° 45° (NE) 07:57:32 435.175 FM
ISS 23 May 07:41:19 07:44:37 57° 192° (SSW) 07:47:56 145.800 FM
Sapphire 23 May 07:49:34 07:54:06 28° 112° (ESE) 07:58:39 437.095 MHz 1200 baud AX-25 AFSK
TMSAT-1 23 May 07:54:01 07:57:03 16° 311° (NW) 08:00:05 436.925 FM
JAS-1B 23 May 08:01:58 08:06:04 18° 83° (E) 08:09:55 435.800 - 435.900 CW/SSB
Hamsat 23 May 08:05:02 08:08:58 32° 95° (E) 08:12:55 145.90 MHz
SO-67 23 May 08:27:48 08:30:24 18° 91° (E) 08:32:58 435.3500 MHz FM
SO-50 23 May 08:28:47 08:30:33 12° 109° (ESE) 08:32:19 436.795 FM
Saudisat 1A 23 May 08:30:40 08:35:05 43° 326° (NW) 08:39:31 436.775 MHz
MaSat-1 23 May 08:31:49 08:32:57 11° 8° (N) 08:34:02 437.345 MHz
AO-7 23 May 08:46:40 08:54:09 39° 310° (NW) 09:01:38 29.400 - 29.500 MHz
PCSat 23 May 08:58:39 09:04:04 81° 127° (SE) 09:09:32 145.825 MHz
ISS 23 May 09:18:14 09:20:56 23° 211° (SSW) 09:23:38 145.800 FM
Sapphire 23 May 09:31:45 09:37:09 69° 313° (NW) 09:42:36 437.095 MHz 1200 baud AX-25 AFSK
KITSAT 1 23 May 09:37:03 09:44:18 38° 248° (WSW) 09:51:33 435.175 FM
Hamsat 23 May 09:41:06 09:45:06 36° 294° (WNW) 09:49:06 145.90 MHz
JAS-1B 23 May 09:51:32 09:57:57 88° 288° (WNW) 10:03:40 435.800 - 435.900 CW/SSB
SO-67 23 May 10:00:39 10:04:06 44° 290° (WNW) 10:07:32 435.3500 MHz FM
SO-50 23 May 10:05:37 10:10:20 62° 129° (SE) 10:14:59 436.795 FM
Oscar 11 23 May 10:05:56 10:07:47 12° 85° (E) 10:09:37 145.825 FM, Beacon 2401.500 USB
JAS-2 23 May 10:07:45 10:13:19 24° 84° (E) 10:18:23 435.800 - 435.900 CW/SSB, 435.910 FM
HO-68 23 May 10:11:07 10:17:19 30° 92° (E) 10:23:28 435.675 MHz FM
Saudisat 1A 23 May 10:12:16 10:15:51 21° 350° (N) 10:19:25 436.775 MHz
MaSat-1 23 May 10:13:22 10:16:44 24° 36° (NE) 10:19:31 437.345 MHz
AO-7 23 May 10:40:06 10:44:46 17° 336° (NNW) 10:49:26 29.400 - 29.500 MHz
OPAL 23 May 10:41:41 10:43:53 13° 87° (E) 10:46:04 ?
PCSat 23 May 10:43:13 10:48:04 32° 330° (NNW) 10:52:57 145.825 MHz
Sapphire 23 May 11:17:02 11:21:32 26° 337° (NNW) 11:26:03 437.095 MHz 1200 baud AX-25 AFSK
UOSAT-12 23 May 11:25:59 11:28:15 14° 111° (ESE) 11:30:31 437.025 FM, 437.400 FM
Oscar 11 23 May 11:40:19 11:44:44 84° 105° (ESE) 11:49:07 145.825 FM, Beacon 2401.500 USB
JAS-1B 23 May 11:43:03 11:47:44 22° 313° (NW) 11:52:03 435.800 - 435.900 CW/SSB
SO-50 23 May 11:46:50 11:51:15 37° 330° (NNW) 11:55:36 436.795 FM
JAS-2 23 May 11:52:07 11:59:22 83° 288° (WNW) 12:05:43 435.800 - 435.900 CW/SSB, 435.910 FM
Saudisat 1A 23 May 11:53:18 11:56:59 23° 14° (NNE) 12:00:37 436.775 MHz
MaSat-1 23 May 11:55:30 11:59:04 43° 245° (WSW) 12:01:55 437.345 MHz
HO-68 23 May 11:58:30 12:05:39 73° 294° (WNW) 12:12:46 435.675 MHz FM
OPAL 23 May 12:18:40 12:23:43 74° 107° (ESE) 12:28:41 ?
Oscar 16 23 May 12:26:17 12:29:42 18° 52° (NE) 12:33:07 437.025 USB, Beacon 2401.1428
PCSat 23 May 12:29:17 12:33:09 19° 355° (N) 12:37:02 145.825 MHz
AO-7 23 May 12:31:36 12:34:16 12° 3° (N) 12:36:56 29.400 - 29.500 MHz
AO-27 23 May 12:37:06 12:40:23 17° 50° (NE) 12:43:41 436.795 MHz FM
ITAMSAT 1 23 May 12:43:19 12:46:47 19° 52° (NE) 12:50:17 435.822 SSB
Sapphire 23 May 13:02:58 13:06:48 19° 3° (N) 13:10:38 437.095 MHz 1200 baud AX-25 AFSK
UOSAT-12 23 May 13:03:08 13:07:39 73° 131° (SE) 13:12:14 437.025 FM, 437.400 FM
Oscar 11 23 May 13:17:38 13:20:25 17° 304° (NW) 13:23:12 145.825 FM, Beacon 2401.500 USB
Uribyol 2 23 May 13:22:38 13:27:15 34° 61° (ENE) 13:31:55 436.500 FM
Oscar 19 23 May 13:24:12 13:28:58 37° 63° (ENE) 13:33:44 437.125 CW, 437.150 USB
AO-Echo 23 May 13:24:59 13:27:22 14° 51° (NE) 13:29:45 ?
SO-50 23 May 13:29:31 13:33:04 21° 354° (N) 13:36:35 436.795 FM
Saudisat 1A 23 May 13:33:07 13:37:38 51° 37° (NE) 13:42:04 436.775 MHz
JAS-2 23 May 13:37:50 13:43:25 25° 312° (NW) 13:48:33 435.800 - 435.900 CW/SSB, 435.910 FM
HO-68 23 May 13:47:01 13:52:19 23° 316° (NW) 13:57:37 435.675 MHz FM
OPAL 23 May 13:58:15 14:02:11 23° 307° (NW) 14:06:04 ?
Oscar 16 23 May 14:03:09 14:08:21 80° 72° (ENE) 14:13:36 437.025 USB, Beacon 2401.1428
AO-27 23 May 14:13:59 14:19:09 76° 71° (ENE) 14:24:23 436.795 MHz FM
PCSat 23 May 14:14:03 14:18:27 24° 21° (NNE) 14:22:51 145.825 MHz
AO-7 23 May 14:18:30 14:23:56 20° 31° (NNE) 14:29:23 29.400 - 29.500 MHz
ITAMSAT 1 23 May 14:20:26 14:25:37 83° 72° (ENE) 14:30:51 435.822 SSB
TMSAT-1 23 May 14:23:30 14:26:23 15° 48° (NE) 14:29:15 436.925 FM
Gurwin Techsat 1B 23 May 14:43:53 14:48:12 26° 57° (ENE) 14:52:33 435.225 FM
UOSAT-12 23 May 14:44:07 14:48:14 32° 333° (NNW) 14:52:23 437.025 FM, 437.400 FM
Sapphire 23 May 14:47:11 14:51:57 30° 28° (NNE) 14:56:42 437.095 MHz 1200 baud AX-25 AFSK
Uosat F 23 May 14:54:28 14:58:57 34° 61° (ENE) 15:03:27 435.120 FM
AO-Echo 23 May 15:00:38 15:05:24 69° 71° (ENE) 15:10:07 ?
Uribyol 2 23 May 15:01:38 15:06:38 48° 261° (W) 15:11:42 436.500 FM
Oscar 19 23 May 15:03:23 15:08:18 42° 262° (W) 15:13:16 437.125 CW, 437.150 USB
RS-15 23 May 15:03:40 15:08:56 14° 92° (E) 15:14:06 29.354 - 29.394 USB, Beacon 29.352 USB
SO-50 23 May 15:11:14 15:15:07 25° 18° (NNE) 15:18:55 436.795 FM
Saudisat 1A 23 May 15:13:04 15:17:15 36° 238° (WSW) 15:21:21 436.775 MHz
Oscar 16 23 May 15:44:43 15:48:23 19° 272° (W) 15:52:03 437.025 USB, Beacon 2401.1428
AO-27 23 May 15:55:32 15:59:18 20° 271° (W) 16:03:06 436.795 MHz FM
PCSat 23 May 15:57:31 16:02:57 62° 45° (NE) 16:08:20 145.825 MHz
TMSAT-1 23 May 16:00:10 16:05:23 63° 69° (ENE) 16:10:39 436.925 FM
ITAMSAT 1 23 May 16:02:17 16:05:49 18° 272° (W) 16:09:22 435.822 SSB
AO-7 23 May 16:07:05 16:14:57 50° 55° (NE) 16:22:51 29.400 - 29.500 MHz
Gurwin Techsat 1B 23 May 16:22:32 16:27:49 67° 257° (WSW) 16:33:09 435.225 FM
UOSAT-12 23 May 16:26:16 16:29:40 20° 357° (N) 16:33:05 437.025 FM, 437.400 FM
Sapphire 23 May 16:30:36 16:36:05 89° 51° (NE) 16:41:31 437.095 MHz 1200 baud AX-25 AFSK
Uosat F 23 May 16:32:55 16:37:41 44° 261° (W) 16:42:30 435.120 FM
AO-Echo 23 May 16:41:15 16:44:43 20° 270° (W) 16:48:09 ?
SO-50 23 May 16:51:54 16:56:31 68° 41° (NE) 17:01:01 436.795 FM
JAS-1B 23 May 17:06:58 17:10:22 14° 36° (NE) 17:13:33 435.800 - 435.900 CW/SSB
RS-15 23 May 17:07:07 17:18:27 52° 116° (ESE) 17:29:19 29.354 - 29.394 USB, Beacon 29.352 USB
PCSat 23 May 17:41:20 17:46:08 32° 246° (WSW) 17:50:53 145.825 MHz
TMSAT-1 23 May 17:41:27 17:45:46 25° 269° (W) 17:50:07 436.925 FM
AO-7 23 May 17:59:39 18:07:44 55° 258° (WSW) 18:15:55 29.400 - 29.500 MHz
Gurwin Techsat 1B 23 May 18:06:49 18:08:52 12° 278° (W) 18:10:55 435.225 FM
UOSAT-12 23 May 18:07:17 18:11:12 27° 21° (NNE) 18:15:08 437.025 FM, 437.400 FM
Sapphire 23 May 18:14:58 18:18:51 20° 252° (WSW) 18:22:44 437.095 MHz 1200 baud AX-25 AFSK
SO-50 23 May 18:33:03 18:36:47 25° 242° (WSW) 18:40:27 436.795 FM
JAS-2 23 May 18:47:34 18:49:13 11° 28° (NNE) 18:50:51 435.800 - 435.900 CW/SSB, 435.910 FM
JAS-1B 23 May 18:51:29 18:59:17 40° 59° (ENE) 19:05:57 435.800 - 435.900 CW/SSB
HO-68 23 May 19:02:50 19:06:44 16° 34° (NE) 19:10:38 435.675 MHz FM
Hamsat 23 May 19:05:05 19:09:10 50° 69° (ENE) 19:13:20 145.90 MHz
SO-67 23 May 19:09:55 19:12:33 20° 62° (ENE) 19:15:11 435.3500 MHz FM
RS-15 23 May 19:18:47 19:30:40 71° 323° (NW) 19:42:01 29.354 - 29.394 USB, Beacon 29.352 USB
STRAND 1 23 May 19:33:20 19:38:10 39° 97° (E) 19:42:59 ?
UOSAT-12 23 May 19:47:26 19:52:03 77° 44° (NE) 19:56:40 437.025 FM, 437.400 FM
AO-7 23 May 19:59:00 20:02:38 13° 281° (W) 20:06:17 29.400 - 29.500 MHz
JAS-2 23 May 20:25:31 20:31:57 29° 51° (NE) 20:38:14 435.800 - 435.900 CW/SSB, 435.910 FM
OPAL 23 May 20:26:30 20:28:28 12° 42° (NE) 20:30:25 ?
JAS-1B 23 May 20:40:49 20:49:40 65° 257° (WSW) 20:57:07 435.800 - 435.900 CW/SSB
Hamsat 23 May 20:42:12 20:45:33 22° 269° (W) 20:48:56 145.90 MHz
SO-67 23 May 20:42:20 20:45:46 45° 261° (W) 20:49:15 435.3500 MHz FM
HO-68 23 May 20:46:08 20:52:49 45° 58° (ENE) 20:59:32 435.675 MHz FM
Oscar 11 23 May 21:06:44 21:10:06 23° 60° (ENE) 21:13:30 145.825 FM, Beacon 2401.500 USB
STRAND 1 23 May 21:12:39 21:17:25 39° 297° (WNW) 21:22:10 ?
UOSAT-12 23 May 21:28:16 21:31:48 22° 244° (WSW) 21:35:19 437.025 FM, 437.400 FM
RS-15 23 May 21:33:59 21:45:07 47° 354° (N) 21:55:47 29.354 - 29.394 USB, Beacon 29.352 USB
OPAL 23 May 22:01:20 22:06:17 48° 63° (ENE) 22:11:13 ?
JAS-2 23 May 22:08:16 22:16:08 87° 72° (ENE) 22:23:55 435.800 - 435.900 CW/SSB, 435.910 FM
KITSAT 1 23 May 22:19:35 22:24:40 18° 101° (E) 22:29:46 435.175 FM
HO-68 23 May 22:33:34 22:40:30 52° 259° (W) 22:47:28 435.675 MHz FM
JAS-1B 23 May 22:36:15 22:41:28 17° 277° (W) 22:46:16 435.800 - 435.900 CW/SSB
Oscar 11 23 May 22:41:47 22:46:02 56° 259° (W) 22:50:20 145.825 FM, Beacon 2401.500 USB
OPAL 23 May 23:40:42 23:45:22 33° 262° (W) 23:50:00 ?
RS-15 23 May 23:48:42 23:59:58 59° 27° (NNE) 00:10:47 29.354 - 29.394 USB, Beacon 29.352 USB
JAS-2 23 May 23:55:30 00:01:58 28° 273° (W) 00:08:25 435.800 - 435.900 CW/SSB, 435.910 FM
KITSAT 1 24 May 00:10:39 00:18:36 67° 123° (ESE) 00:26:38 435.175 FM
HO-68 24 May 00:28:00 00:30:00 11° 282° (WNW) 00:32:00 435.675 MHz FM
MaSat-1 24 May 00:54:51 00:56:48 12° 101° (E) 00:58:40 437.345 MHz
RS-15 24 May 02:01:45 02:12:51 69° 236° (SW) 02:23:35 29.354 - 29.394 USB, Beacon 29.352 USB
KITSAT 1 24 May 02:06:35 02:14:25 51° 328° (NNW) 02:22:20 435.175 FM
Oscar 16 24 May 02:09:34 02:13:08 19° 88° (E) 02:16:41 437.025 USB, Beacon 2401.1428
AO-27 24 May 02:21:43 02:25:11 18° 87° (E) 02:28:39 436.795 MHz FM
ITAMSAT 1 24 May 02:27:52 02:31:35 19° 88° (E) 02:35:17 435.822 SSB
MaSat-1 24 May 02:31:43 02:38:11 52° 117° (ESE) 02:43:22 437.345 MHz
AO-Echo 24 May 03:02:53 03:05:16 14° 86° (E) 03:07:40 ?
Uribyol 2 24 May 03:07:54 03:12:50 40° 97° (E) 03:17:44 436.500 FM
Oscar 19 24 May 03:08:22 03:13:21 45° 98° (E) 03:18:17 437.125 CW, 437.150 USB
ISS 24 May 03:40:27 03:42:59 20° 147° (SSE) 03:45:32 145.800 FM
Oscar 16 24 May 03:47:58 03:53:11 82° 288° (WNW) 03:58:21 437.025 USB, Beacon 2401.1428
AO-27 24 May 04:00:10 04:05:27 87° 287° (WNW) 04:10:41 436.795 MHz FM
KITSAT 1 24 May 04:04:31 04:11:45 33° 356° (N) 04:18:59 435.175 FM
ITAMSAT 1 24 May 04:06:29 04:11:45 80° 288° (WNW) 04:16:59 435.822 SSB
TMSAT-1 24 May 04:10:49 04:14:03 16° 86° (E) 04:17:17 436.925 FM

Developed and maintained by Chris Peat, Heavens-Above GmbH. Please read the updated FAQ before sending e-mail. Imprint. DLR
